Probability
0 3 9 13 16 17 16 17 21 24 24 21 17 15 14 14 13 11 9 8 6 6 6 6 4 2 1 0 0 0 0 1 1 0 0 0 0 0 0 0 0 0 0
3 7 13 16 18 18 17 16 19 22 23 22 18 15 14 14 14 13 11 9 6 6 6 6 4 3 2 1 0 0 0 1 1 1 1 0 0 0 0 0 0 0 0
8 11 15 18 20 21 19 17 18 20 21 22 19 16 14 15 15 15 13 10 7 7 6 6 6 5 3 1 0 0 0 1 1 1 1 0 0 0 0 0 0 0 0
11 13 16 19 21 23 22 20 18 18 19 19 18 15 14 14 15 14 13 11 9 8 7 6 6 5 4 3 1 0 0 1 1 1 1 0 0 0 0 0 0 0 0
11 13 16 18 20 21 21 19 17 17 18 18 16 14 13 13 12 12 12 12 11 9 7 6 6 4 4 4 2 1 1 2 1 0 0 0 0 0 0 0 0 1 1
10 12 14 17 18 17 17 17 16 16 18 18 16 13 13 13 13 11 11 11 11 10 7 5 5 4 4 4 3 1 1 1 1 0 0 0 0 0 0 0 1 2 2
9 10 12 15 16 16 16 16 14 14 17 17 14 12 11 12 14 12 10 9 11 9 7 4 4 5 5 5 4 1 0 0 0 0 0 0 0 0 0 1 1 2 3
8 9 12 14 15 16 17 17 15 13 14 13 12 11 11 11 12 12 10 9 9 8 5 4 4 4 5 5 4 2 1 0 0 0 0 0 1 1 1 2 2 2 2
7 9 11 13 15 16 17 17 15 13 11 11 11 10 10 10 10 11 10 8 6 5 4 4 4 4 4 4 4 2 1 0 0 0 0 0 1 2 2 2 2 1 1
5 5 8 11 14 16 16 16 14 12 10 9 9 8 7 7 8 8 8 7 5 4 4 3 3 4 3 3 3 1 0 0 0 0 0 0 1 1 1 1 0 0 0
2 2 4 7 12 14 16 15 14 12 10 8 7 5 5 6 5 5 5 5 5 4 3 3 3 3 3 3 2 1 0 0 0 0 0 0 0 0 0 0 0 0 0
1 1 2 5 8 11 14 14 13 12 10 9 7 5 6 6 4 2 2 2 3 3 2 2 3 3 3 3 2 1 0 0 0 0 0 0 0 0 0 0 0 0 0
0 0 1 3 5 8 11 12 11 10 10 9 7 6 7 7 4 2 1 1 1 1 0 1 3 3 3 3 2 1 0 0 0 0 0 0 0 0 0 0 0 0 0
0 0 0 1 4 7 9 9 8 8 8 8 6 6 7 8 5 2 1 0 0 0 0 1 2 3 3 3 2 1 0 0 0 0 0 0 0 0 0 0 0 0 0
0 0 0 1 3 5 7 7 5 5 5 6 5 4 6 7 5 3 1 0 0 0 0 0 1 2 2 2 1 0 0 0 0 0 0 0 0 0 0 0 0 0 0
0 0 0 1 2 2 3 3 3 3 4 4 3 3 4 5 4 2 1 0 0 0 0 0 1 1 1 0 0 0 0 0 0 0 0 0 0 0 0 0 0 0 0
0 0 0 0 0 0 0 1 2 2 3 3 2 2 3 3 3 1 0 0 0 0 0 0 0 0 0 0 0 0 0 0 0 0 0 0 0 0 0 0 0 0 0
0 0 0 0 0 0 0 0 0 1 2 2 1 1 2 2 2 1 1 0 0 0 0 0 0 0 0 0 0 0 0 0 0 0 0 0 0 0 0 0 0 0 0
0 0 0 0 0 0 0 0 0 0 1 1 0 0 1 1 1 2 1 0 0 1 2 1 0 0 0 0 0 0 0 0 0 0 0 0 0 0 0 0 0 0 0
0 0 0 0 0 0 0 0 0 0 0 0 0 0 0 0 1 2 1 0 1 2 3 2 1 0 0 0 0 0 0 0 0 0 0 0 0 0 0 0 0 0 0
0 0 0 0 0 0 0 0 0 0 0 0 0 0 0 0 1 1 1 0 1 2 3 2 1 0 0 0 0 0 0 0 0 0 0 0 0 0 0 0 0 0 0
0 0 0 0 0 0 0 0 0 0 0 0 0 0 0 0 0 0 0 0 1 2 3 2 1 0 0 0 0 0 0 0 0 0 0 0 0 0 0 0 0 0 0
0 0 0 0 0 0 0 0 0 0 0 0 0 0 0 0 0 0 0 0 1 2 3 2 1 0 0 0 0 0 0 0 0 0 0 0 0 0 0 0 0 0 0
0 0 0 0 0 0 0 0 0 0 0 0 0 0 0 0 0 0 0 0 1 2 3 2 1 0 0 0 0 0 0 0 0 0 0 0 0 0 0 0 0 0 0
0 0 0 0 0 0 0 0 0 0 0 0 0 0 0 0 0 0 0 0 1 2 2 1 0 0 0 0 0 0 0 0 0 0 0 0 0 0 0 0 0 0 0
0 0 0 0 0 0 0 0 0 0 0 0 0 0 0 0 0 0 0 0 0 1 2 1 0 0 0 0 0 0 0 0 0 0 0 0 0 0 0 0 0 0 0
Wind_Speed
2 3 4 6 8 9 10 10 10 10 11 11 11 11 12 12 12 12 12 12 12 12 12 12 11 11 11 11 12 12 12 12 12 12 12 12 12 12 12 12 11 7 12
5 4 6 6 8 9 10 10 10 10 10 11 11 11 11 11 11 11 11 11 12 12 11 11 11 11 11 11 11 11 11 11 11 11 10 9 11 12 12 11 11 7 11
5 4 5 7 8 9 9 9 10 10 10 10 10 11 11 11 11 11 11 11 11 11 11 11 11 11 11 11 11 11 11 11 11 11 9 4 5 11 11 11 10 10 10
5 4 5 7 9 9 9 9 10 10 10 10 10 10 10 10 10 11 11 10 10 11 11 11 11 11 11 11 10 10 11 11 11 9 5 3 3 8 9 9 9 9 9
4 3 4 8 8 9 9 9 9 10 9 9 9 10 10 10 10 10 10 10 10 10 10 10 10 10 10 10 9 9 10 10 9 6 4 3 2 7 8 9 9 9 9
4 3 4 7 8 9 9 9 9 9 9 9 9 9 10 10 9 9 9 9 9 9 9 9 9 10 10 10 9 9 9 9 7 4 3 3 2 6 8 8 8 8 8
3 3 3 6 6 8 8 8 8 8 9 9 9 9 9 9 9 9 8 8 9 9 9 9 9 10 9 9 8 9 9 8 5 3 3 2 2 6 7 7 7 7 7
3 3 3 5 5 5 7 7 7 7 8 8 9 8 8 8 8 9 8 8 8 8 8 9 9 9 9 8 8 8 8 7 6 4 2 1 4 6 6 6 6 6 6
3 2 2 2 3 3 4 6 6 7 7 7 8 8 8 7 7 8 8 8 7 7 8 8 8 8 8 7 8 8 8 7 4 2 2 1 4 5 6 6 5 5 5
4 3 2 1 2 2 2 4 5 6 6 7 7 7 7 7 6 7 6 7 7 7 7 7 7 7 7 6 7 7 7 6 3 2 1 1 4 5 5 5 5 4 4
4 3 2 2 1 1 2 2 3 4 5 6 5 6 6 3 3 4 4 6 6 6 7 7 7 6 6 5 6 6 5 2 2 1 1 3 4 4 4 4 4 4 3
3 3 2 2 1 1 1 1 1 2 2 3 3 3 3 3 2 3 4 5 5 5 6 6 6 5 4 2 3 4 2 2 2 1 1 3 4 3 3 3 3 3 3
1 2 3 3 1 1 1 1 0 1 1 2 3 3 3 3 2 2 2 2 3 3 3 3 3 2 2 1 1 1 1 1 1 0 0 2 3 3 3 3 3 2 1
2 2 2 3 2 1 1 1 1 1 1 1 2 3 3 2 2 2 2 2 2 2 2 2 2 2 2 1 1 1 1 1 0 0 0 1 2 3 3 2 2 2 2
2 2 2 2 3 1 1 1 1 1 1 2 2 2 3 3 3 2 2 2 2 2 2 2 2 2 1 1 1 1 1 0 0 0 0 1 1 2 3 3 2 2 2
1 2 2 2 3 2 1 1 1 0 1 1 2 2 3 3 3 3 3 2 2 2 2 2 2 2 1 1 1 0 1 1 1 1 1 1 1 1 3 3 3 3 3
1 1 2 1 2 1 1 0 0 0 1 1 1 2 3 3 3 3 3 3 2 2 2 2 2 2 1 1 1 0 0 1 1 1 1 1 1 1 2 3 3 4 4
1 1 1 1 1 1 1 1 0 0 1 1 1 1 2 2 3 3 3 3 3 2 2 2 2 2 1 1 0 1 1 1 1 1 1 0 0 1 2 2 3 4 4
1 1 1 1 0 0 1 1 0 0 0 1 1 1 1 2 3 3 3 3 3 3 2 2 2 2 1 1 1 1 1 1 1 1 1 1 1 1 1 2 3 4 4
1 1 1 1 1 1 1 1 1 1 0 0 1 1 1 1 2 2 2 3 4 3 2 2 2 1 1 1 0 1 1 1 1 1 2 1 1 1 1 2 2 3 5
2 2 1 1 1 1 1 1 0 1 1 1 0 1 1 1 1 1 1 2 3 3 3 3 2 2 1 1 1 1 2 1 1 1 1 1 1 1 1 1 2 2 3
2 2 2 1 1 0 0 1 1 0 1 1 0 0 1 2 2 2 2 2 2 3 4 3 3 2 1 1 2 1 1 2 2 1 1 1 1 1 1 2 2 2 2
3 2 2 1 1 1 1 1 1 1 1 0 0 0 0 1 2 2 2 2 2 3 3 4 4 3 2 1 1 2 2 2 2 2 2 1 1 1 1 2 3 3 3
2 2 2 1 1 1 1 1 1 1 0 1 0 1 1 1 1 1 2 2 2 2 3 4 4 2 3 2 1 1 1 2 1 2 2 2 2 2 2 3 3 3 3
2 2 2 2 2 1 1 1 2 1 0 0 1 1 1 0 1 1 2 2 2 2 3 3 4 3 3 3 2 1 1 0 1 2 3 3 3 2 3 3 2 3 3
3 3 3 2 2 2 2 1 2 1 1 1 1 1 1 1 1 1 2 2 3 2 3 3 4 4 4 3 3 2 2 2 2 2 3 3 3 3 3 2 2 3 2
Wind_Direction
185 196 156 133 123 122 118 114 114 117 116 115 113 112 109 106 107 108 112 115 114 111 110 108 107 105 102 103 104 101 98 96 93 91 90 92 93 92 91 88 85 78 84
171 179 147 132 122 118 120 118 118 115 116 118 117 115 114 112 110 110 109 112 113 113 111 109 108 107 107 107 105 104 102 98 96 91 89 88 93 94 93 92 89 86 85
149 158 147 134 123 119 119 121 122 119 115 117 119 118 116 115 115 113 110 111 113 114 113 112 111 108 109 109 107 106 105 101 98 92 87 76 89 95 94 93 91 88 87
143 148 148 136 128 123 120 122 125 123 121 118 119 122 121 118 117 114 113 111 113 115 113 111 110 110 109 109 109 109 107 102 100 94 84 75 81 97 96 95 92 89 85
130 136 151 135 130 127 124 122 125 126 125 124 122 126 125 123 121 118 116 113 112 115 115 113 112 111 111 110 110 111 110 104 98 90 86 83 80 100 99 97 94 90 87
125 134 146 135 138 136 133 128 124 127 126 125 125 124 127 126 123 121 118 114 112 113 113 112 112 113 111 108 108 111 110 103 96 86 86 90 93 108 106 102 98 97 93
112 127 147 137 141 142 138 136 130 133 132 129 125 122 121 124 122 120 117 114 113 112 114 112 111 109 106 106 102 103 105 101 95 90 87 94 114 117 114 111 107 101 98
105 116 126 129 130 141 147 143 138 138 137 136 133 130 124 124 125 124 120 116 115 116 117 114 114 115 110 105 98 96 98 99 97 98 90 88 113 120 121 119 114 109 104
66 74 116 130 130 126 137 144 145 143 141 137 136 135 130 127 131 130 125 121 118 116 118 116 113 113 114 107 97 95 93 91 96 102 111 106 116 121 117 114 111 107 103
54 44 48 79 114 124 132 136 140 141 141 139 138 134 131 128 131 129 122 124 124 118 120 120 116 114 114 109 98 94 91 83 87 94 98 129 125 129 125 119 115 109 99
37 30 30 40 61 101 120 130 138 139 142 142 140 136 133 132 129 126 121 123 129 127 126 120 117 112 111 104 96 91 86 76 91 90 115 122 132 134 129 124 123 119 113
23 15 12 32 43 74 120 126 153 147 145 143 143 143 139 129 127 125 129 127 126 125 127 119 112 109 92 80 86 85 77 78 83 93 116 125 139 141 139 137 138 135 125
17 16 7 19 25 70 72 118 122 138 143 142 145 144 136 126 125 121 135 132 122 118 121 114 102 88 75 72 81 79 83 89 86 44 110 146 163 163 154 150 156 158 158
29 20 15 27 21 54 70 109 129 144 155 152 155 148 139 137 138 142 144 140 137 135 133 126 118 100 90 94 104 103 81 88 107 188 221 165 187 189 188 181 190 200 199
26 11 17 24 25 25 66 69 90 150 164 160 161 159 148 148 154 154 150 146 150 143 147 146 137 129 125 117 121 119 140 154 172 218 262 196 198 214 218 224 229 228 233
15 9 15 34 20 20 63 70 86 106 151 156 157 161 154 155 160 163 158 156 153 154 152 156 156 147 151 144 140 145 202 194 194 224 249 251 238 240 235 232 236 241 248
342 13 19 31 27 20 14 2 61 143 147 160 175 172 162 158 163 164 160 159 160 151 144 140 132 123 126 126 155 192 205 207 193 217 234 264 279 278 269 259 255 254 254
26 360 4 16 42 11 8 339 340 10 162 166 172 169 167 162 162 163 160 162 156 147 146 148 141 138 139 148 201 260 263 239 206 213 199 210 250 295 290 292 285 274 270
49 6 20 21 89 20 20 357 331 18 215 187 165 151 167 173 167 168 173 166 156 153 155 151 137 149 161 184 224 247 254 232 238 215 210 219 227 268 274 294 291 288 290
27 31 43 8 18 45 35 28 16 21 285 210 177 171 156 171 170 164 174 172 160 158 158 151 149 148 164 169 192 288 274 261 248 219 224 228 238 249 259 278 285 290 291
24 27 41 16 329 54 58 52 348 276 249 230 193 143 145 149 143 130 160 175 167 165 163 160 157 156 132 108 91 350 329 306 284 258 237 214 251 262 272 271 273 279 292
23 14 24 16 319 270 230 184 186 229 243 199 131 68 133 145 140 131 121 146 155 152 148 154 151 158 146 130 127 108 329 325 321 296 265 231 249 282 290 287 282 278 277
11 2 343 328 326 346 25 73 54 48 22 65 39 310 233 175 156 144 147 149 164 167 164 168 168 167 176 208 156 146 159 234 299 301 276 256 256 250 264 274 271 273 275
335 345 351 1 3 356 82 115 123 146 215 266 287 279 288 200 172 164 161 173 178 182 181 183 174 171 167 186 222 221 192 170 192 293 302 297 294 270 265 281 282 277 278
355 360 2 24 13 9 51 131 142 144 144 338 359 345 308 272 215 180 179 194 198 201 204 195 181 175 176 188 189 190 203 237 180 206 270 292 303 281 272 266 261 266 277
7 7 6 23 21 29 47 79 121 132 114 71 2 328 317 290 258 216 199 211 216 216 214 210 198 191 194 195 201 189 181 183 204 206 246 273 285 288 285 268 259 260 271